Theta_e
297 289 285 287 288 287 288 287 286 288 290 288 290 292 294 297 292 291 290 292 294 295 297 302 313 324 327 328 330 330 328 329 329 327 328 330 329 330 330 330 331 331 331 331
291 286 291 293 290 288 286 284 283 288 290 288 285 287 291 293 292 293 293 293 293 293 294 296 304 310 320 323 327 329 329 328 330 330 330 330 331 331 332 331 331 331 331 331
286 289 294 292 290 287 286 284 283 284 287 285 283 282 286 290 291 292 294 294 295 294 294 293 295 296 300 303 303 326 329 329 329 330 328 329 331 330 330 330 330 331 331 331
289 292 291 289 288 288 283 288 287 286 282 276 281 274 281 285 288 290 291 293 294 293 294 296 296 296 297 300 303 301 327 329 330 330 329 327 326 326 327 327 331 330 331 331
285 287 288 287 288 290 286 289 287 286 281 279 277 275 279 283 284 286 289 290 293 294 293 293 293 295 295 297 300 303 307 315 318 329 329 327 325 328 328 329 329 329 330 331
286 290 289 288 291 291 291 287 285 284 280 272 277 276 276 280 284 286 289 291 292 292 292 291 292 293 292 294 296 298 300 300 305 314 327 327 327 326 326 327 326 327 328 326
284 286 290 291 287 290 288 281 272 271 268 269 278 275 279 283 285 286 290 290 290 290 289 288 288 288 290 290 292 295 294 295 298 303 304 308 317 318 321 321 324 320 317 317
276 273 286 290 287 285 285 282 274 268 269 273 279 274 278 287 290 290 290 289 289 287 287 287 286 287 287 287 288 289 290 289 293 296 298 300 304 306 306 306 308 308 307 307
278 278 288 290 290 289 285 280 284 277 270 272 277 278 284 288 289 288 287 287 286 286 286 285 285 285 285 285 286 286 287 287 288 292 294 294 296 301 302 303 303 302 303 300
283 277 285 288 290 289 287 288 278 277 266 266 275 276 277 282 286 288 286 284 285 285 284 283 283 283 283 283 284 284 285 284 286 289 290 291 292 294 295 297 297 298 299 300
284 279 282 286 284 282 285 281 283 281 277 271 270 274 284 286 287 288 286 286 284 283 282 281 281 281 281 282 282 283 283 283 284 286 287 288 289 291 292 291 291 291 291 293
286 282 276 281 288 289 287 285 283 276 271 275 277 275 287 287 287 287 285 284 283 283 281 280 280 280 280 280 281 281 282 282 283 284 285 286 287 288 288 288 288 289 288 288
286 276 269 274 280 285 283 285 287 285 284 275 272 275 287 287 286 285 284 283 282 282 280 279 278 278 278 279 279 280 282 283 284 284 284 284 285 285 285 285 286 286 286 285
288 279 270 269 273 279 279 282 284 282 278 278 279 279 284 285 285 285 284 282 282 281 281 279 278 278 278 278 278 279 280 281 282 282 282 282 282 283 283 284 284 284 284 283
280 271 276 276 277 279 278 280 281 279 275 275 276 278 283 285 286 287 285 283 282 281 280 279 278 278 278 278 278 278 278 279 279 279 279 279 280 281 281 281 281 281 281 281
281 268 272 268 278 279 274 278 278 276 275 277 276 277 285 287 287 285 284 283 282 281 280 280 279 279 279 279 278 279 278 278 278 278 278 279 279 279 279 279 279 279 279 279
274 268 264 262 271 269 266 273 277 279 280 277 272 279 284 286 286 285 284 284 283 281 280 279 279 279 279 278 278 276 276 277 277 277 277 277 277 277 277 278 278 277 277 278
267 266 263 262 261 258 273 276 278 278 281 282 282 282 286 287 286 285 285 284 283 281 280 279 278 277 277 277 277 276 276 276 276 275 276 276 276 276 276 276 276 276 276 276
279 267 264 261 260 265 271 275 275 274 275 276 277 280 284 284 283 283 285 285 284 282 281 279 278 277 276 276 276 276 275 274 274 274 274 275 275 275 275 275 274 275 275 275
277 274 266 255 256 256 270 275 277 278 270 276 276 278 280 283 279 282 281 282 282 282 281 278 277 277 276 275 276 275 273 273 272 273 273 274 275 275 274 275 275 275 276 275
264 260 261 261 255 263 273 276 277 265 271 276 277 277 280 281 280 278 278 277 278 278 277 277 278 277 277 277 277 275 274 273 273 273 273 273 273 273 273 273 274 274 274 274
264 259 258 255 255 260 274 276 273 275 277 277 277 277 278 278 276 276 275 276 276 275 277 276 276 275 275 276 275 273 272 272 271 271 270 271 271 272 272 271 271 272 271 270
265 269 266 267 268 274 275 277 278 278 278 278 277 277 278 276 273 273 272 272 272 273 274 273 274 273 272 272 273 271 270 270 270 270 269 268 269 272 271 269 269 268 269 268
271 271 271 270 272 275 276 277 279 279 278 279 278 278 277 273 271 270 269 270 270 269 269 266 269 268 267 267 270 269 268 268 267 266 267 267 267 268 269 270 270 269 269 268
272 273 271 271 271 272 275 275 277 276 275 274 272 273 274 273 273 272 270 268 268 267 265 267 267 267 265 263 264 264 266 267 266 266 266 266 266 266 266 268 267 268 268 269
272 274 273 273 276 275 274 270 269 271 271 272 271 269 269 271 274 271 270 270 269 268 266 266 266 266 265 264 263 263 265 266 265 265 265 265 265 264 265 265 264 270 271 273
Wind_Speed
3 3 7 8 6 2 7 5 6 4 3 4 10 10 8 5 4 5 4 6 7 8 4 1 5 11 12 12 13 13 12 11 8 4 5 5 6 3 4 4 7 9 8 8
4 5 6 6 6 5 4 7 6 2 4 5 2 4 4 5 5 7 8 8 8 5 3 2 8 8 6 5 8 11 13 12 11 7 5 3 4 3 5 5 6 7 7 8
4 5 10 8 6 6 5 5 4 3 2 2 3 4 4 6 4 4 5 7 7 8 6 5 8 8 8 8 6 6 12 12 10 10 4 3 3 2 5 6 7 7 9 9
3 4 9 4 5 5 4 6 5 5 2 3 2 5 4 6 9 6 9 8 6 6 6 6 6 8 8 8 7 7 6 10 10 13 11 11 10 9 6 5 6 6 9 10
5 3 3 2 3 4 4 5 4 3 3 3 1 4 8 2 6 8 7 6 6 6 6 7 7 7 8 9 8 8 8 7 3 8 8 9 10 9 4 6 7 7 6 9
6 2 6 8 4 5 6 6 6 4 3 2 6 6 6 4 7 1 2 6 6 7 7 7 7 8 8 8 9 9 8 7 9 6 6 10 11 10 7 7 5 4 3 2
1 0 1 4 6 2 5 5 3 3 2 6 3 3 9 6 5 3 6 6 7 6 7 7 9 9 9 11 10 7 8 8 8 8 8 8 1 2 2 1 2 4 2 2
5 1 7 3 4 6 5 7 6 8 4 4 3 6 7 3 6 10 12 8 7 8 7 9 8 8 9 10 9 8 8 8 9 9 9 8 8 5 5 7 5 5 5 5
4 2 1 3 3 9 4 3 5 5 2 3 3 4 1 3 7 8 8 7 6 6 7 7 7 7 7 8 8 8 8 7 8 9 8 9 8 7 7 7 8 6 6 8
1 2 3 2 2 1 6 6 2 3 3 2 3 2 3 1 3 4 5 6 5 5 6 6 6 7 7 7 6 8 7 7 7 9 8 8 9 7 9 8 9 9 7 8
4 3 2 2 3 2 3 3 3 3 4 4 2 3 3 5 6 8 6 5 5 5 5 5 5 5 5 6 7 7 7 7 8 8 8 9 9 8 10 10 9 9 10 8
3 3 2 2 3 4 1 1 5 4 4 2 2 4 5 5 7 7 6 6 5 5 5 5 5 5 6 6 6 6 6 7 6 6 7 9 9 10 11 11 11 10 10 10
5 1 3 4 4 2 3 2 3 3 1 4 6 4 3 5 6 4 6 5 6 6 6 5 5 5 5 5 6 6 7 8 7 7 8 9 9 10 11 11 10 10 10 9
2 4 5 6 4 3 3 5 1 1 1 2 3 3 4 2 3 3 5 6 6 6 6 5 4 4 4 4 5 6 7 8 8 8 9 10 9 9 10 10 10 10 10 11
5 4 1 0 1 3 5 5 5 5 5 5 5 1 7 9 6 9 10 7 7 8 7 6 6 5 4 5 5 5 6 6 6 8 8 8 8 8 9 10 9 9 10 9
4 1 3 6 7 3 1 3 4 3 2 5 2 8 10 8 5 5 9 9 8 8 9 7 7 6 4 4 4 5 4 5 5 7 7 7 7 8 8 8 8 9 9 8
4 5 4 4 5 6 7 4 5 4 4 6 5 9 2 4 6 9 10 10 10 10 9 10 10 8 6 5 5 4 5 5 6 7 6 6 7 7 7 7 8 8 8 8
5 5 3 3 5 3 7 5 6 5 6 5 7 4 6 7 3 3 5 7 6 7 8 8 8 7 7 5 6 5 5 5 5 6 6 5 6 6 6 7 7 7 6 7
4 5 4 5 3 5 6 3 3 3 4 1 5 7 7 3 2 4 7 8 9 8 6 6 7 7 7 8 6 6 6 5 5 5 5 4 4 5 5 6 5 4 6 6
5 7 6 4 6 6 7 3 2 2 4 2 1 5 6 4 2 5 2 4 8 9 9 9 7 8 8 7 7 8 6 5 5 4 3 4 4 4 5 4 4 3 4 5
4 5 5 2 2 10 9 5 1 8 7 2 2 3 4 3 2 3 2 3 4 5 10 10 9 9 8 7 7 8 7 5 4 5 4 3 3 4 4 3 2 3 4 5
7 7 4 3 4 9 4 2 6 6 2 2 2 2 2 3 3 1 1 5 6 9 9 7 8 6 6 7 7 7 6 6 5 5 5 3 2 1 3 4 2 3 4 5
2 7 6 10 9 6 5 7 5 4 4 3 2 2 2 3 4 4 4 3 3 5 6 4 8 8 4 4 6 7 5 7 6 5 5 3 2 2 3 4 3 3 3 3
4 4 3 4 6 9 8 5 6 7 7 4 5 3 5 5 5 4 4 4 4 4 5 3 7 6 4 1 3 5 6 5 5 5 5 3 3 3 1 1 2 3 3 3
5 5 6 6 5 6 7 8 5 4 3 3 1 4 5 4 4 5 5 5 5 5 4 6 7 6 7 3 3 4 7 7 5 4 3 4 3 3 3 2 2 2 1 3
7 9 6 9 7 6 6 4 3 3 5 6 6 3 3 5 7 5 6 7 7 7 5 6 6 6 7 7 6 4 5 7 7 6 5 4 4 3 4 3 1 2 4 6
Wind_Direction
193 138 190 179 185 110 157 170 184 229 214 197 224 208 229 193 225 183 218 226 241 232 251 95 185 191 194 184 187 185 181 177 168 171 177 185 199 189 194 196 191 193 194 193
146 199 212 188 206 183 157 159 197 80 300 193 199 233 235 244 208 203 207 230 225 248 203 153 56 56 83 154 178 182 188 181 186 188 184 167 179 193 198 195 199 193 185 188
168 179 189 182 188 194 196 174 176 141 238 5 88 307 242 254 224 220 245 218 219 214 189 69 64 49 45 47 28 206 192 183 189 188 164 127 147 185 204 214 212 200 191 195
237 288 168 156 202 168 160 191 141 140 79 192 66 259 268 247 248 219 227 209 217 97 63 58 52 50 36 15 2 3 204 198 199 183 186 197 203 214 216 205 213 205 198 205
220 214 175 190 193 154 164 101 141 140 117 55 343 86 278 292 263 247 237 164 116 96 87 65 50 52 36 22 8 12 23 32 30 200 208 205 206 208 199 201 191 203 199 212
212 255 151 189 178 156 134 78 46 60 87 332 212 138 271 229 224 199 62 97 89 82 70 57 38 42 40 35 21 18 21 20 8 4 226 213 219 219 201 196 192 187 179 167
119 105 231 163 123 110 111 98 33 12 7 218 139 139 251 249 273 247 143 93 70 63 59 42 36 27 21 33 25 22 24 17 11 27 32 13 39 97 107 38 184 105 101 60
144 329 173 191 179 162 166 163 155 186 190 220 106 214 252 344 40 94 95 89 75 55 52 51 39 35 28 32 28 24 24 24 17 29 33 38 16 69 71 65 53 76 91 57
133 234 99 163 148 142 206 162 160 103 39 68 231 293 317 78 68 74 93 88 76 69 56 52 47 46 34 34 33 30 32 25 23 35 36 41 48 35 68 63 72 71 60 72
156 101 28 233 88 64 155 157 80 1 120 218 275 267 239 268 214 138 121 109 105 90 69 54 39 31 32 31 24 30 41 37 27 41 42 48 50 33 63 63 56 59 65 73
130 81 307 84 20 154 127 161 70 134 145 166 147 263 341 319 256 175 146 133 115 102 95 79 60 44 36 32 31 28 33 35 37 42 43 52 51 59 55 64 62 64 51 47
171 113 97 40 104 47 50 114 153 138 260 251 97 282 352 34 38 86 96 106 106 107 105 97 83 62 42 30 33 45 50 47 40 45 50 58 59 57 65 65 59 59 64 49
169 351 80 359 353 11 74 350 39 109 87 201 144 246 46 47 65 115 143 147 140 130 119 102 82 75 62 42 33 35 51 55 51 57 61 59 60 65 66 66 66 65 66 58
116 101 152 173 172 132 154 173 172 317 209 169 199 164 270 327 153 195 183 171 162 154 142 132 111 97 82 61 48 37 43 46 50 57 62 59 54 59 64 66 68 68 64 65
88 117 95 217 215 111 163 165 177 188 194 157 217 178 285 272 241 195 191 178 170 164 158 156 146 134 117 89 66 57 46 45 43 60 62 60 58 59 62 63 64 66 64 60
19 67 80 6 350 20 257 235 204 216 242 265 238 270 244 264 202 169 174 182 188 184 170 158 145 136 124 104 92 86 72 62 61 63 62 58 61 65 66 67 68 70 70 65
73 113 67 290 350 5 350 260 215 238 197 157 179 237 270 264 220 199 186 188 194 186 172 166 163 154 144 135 121 92 78 68 69 73 62 61 65 67 61 68 72 69 68 69
113 84 79 181 26 32 243 304 226 233 270 270 272 267 216 238 224 157 169 181 195 182 174 171 157 138 132 125 113 114 89 72 68 66 69 62 71 74 69 74 75 72 68 68
70 110 82 117 173 283 316 261 167 143 270 303 297 311 260 207 30 302 188 172 183 174 173 175 156 142 137 137 135 118 103 97 85 67 58 62 80 87 80 81 85 85 91 84
40 50 105 79 126 196 233 234 192 128 294 323 299 309 311 136 202 256 143 151 152 147 144 143 139 134 136 139 134 123 114 104 105 89 66 46 61 83 87 86 89 85 103 109
26 2 129 158 183 288 244 234 138 86 235 181 257 291 326 219 224 303 4 43 71 109 131 131 151 149 142 146 148 138 140 143 124 114 112 92 83 96 99 100 95 104 97 94
165 134 195 79 74 281 208 110 167 213 210 199 226 278 302 229 181 235 57 141 136 134 137 134 128 131 141 148 144 144 148 135 130 121 106 94 48 103 110 105 59 87 108 108
303 183 181 178 209 228 221 203 219 180 200 241 218 235 255 226 217 187 198 162 139 133 128 113 135 138 133 150 148 154 151 146 139 135 140 145 107 112 133 123 124 96 105 128
257 167 203 76 260 234 241 253 241 210 215 217 226 216 166 202 210 193 176 165 156 135 140 118 128 145 155 129 123 128 145 140 137 144 156 146 132 163 127 92 145 145 155 139
198 131 188 259 281 314 266 229 235 254 215 214 227 192 207 173 231 181 178 183 176 163 158 155 165 169 172 159 147 160 152 145 149 147 165 177 176 174 144 145 173 148 131 146
182 194 182 231 211 180 229 231 202 180 218 226 187 239 237 189 204 173 188 180 171 176 166 167 174 170 177 169 170 180 161 162 159 172 182 191 179 184 169 164 117 241 180 196